[[{"header":{"parameterUnit":"m.s-1","parameterCategory":1,"la1":30.2991,"la2":30.254,"lo1":-89.0895,"lo2":-89.0444,"dy":0.0017,"dx":0.0017,"nx":28,"ny":28,"refTime":"2024-08-31T09:00:00:Z","depth":0,"parameterNumber":2,"parameterNumberName":"U-component_of_WINDS"},"data":[0,0,0,0,0,0,0,0,0,0,0,0,0,0,0,0,0,0,0,0,0,0,0,0,0,0,0,0,0,0,0,0,0,0,0,0,0,0,0,0,0,0,0,0,0,0,0,0,0,0,0,0,0,0,0,0,0,0,-3.1364,-3.1363,0,-3.1315,-3.1314,-3.1314,-3.1211,-3.1209,-3.1207,-3.1205,-3.1155,-3.1156,-3.1157,0,0,0,0,0,0,0,0,0,0,0,0,0,-3.1372,-3.1373,-3.1364,-3.1363,-3.1363,-3.1315,-3.1314,-3.1314,-3.1212,-3.1209,-3.1207,-3.1204,-3.1155,-3.1156,-3.1157,0,0,0,0,0,0,0,0,0,0,0,0,0,-3.1351,-3.1373,-3.1364,-3.1306,-3.1301,-3.1315,-3.1314,-3.1313,-3.1212,-3.1209,-3.1206,-3.1203,-3.1155,-3.1156,-3.1157,-3.1224,0,0,-3.1159,-3.116,0,0,0,0,0,0,0,0,-3.1352,-3.135,-3.1315,-3.131,-3.1304,-3.1266,-3.1299,-3.1283,-3.1213,-3.1246,-3.1205,-3.1202,-3.1195,-3.1192,-3.119,-3.1221,-3.1219,-3.116,-3.116,-3.116,-3.1161,0,0,0,0,0,0,0,-3.1354,-3.1352,-3.1344,-3.1315,-3.1308,-3.1284,-3.1277,-3.1295,-3.1238,-3.1243,-3.1235,-3.1231,-3.1191,-3.1189,-3.1188,-3.1218,-3.1159,-3.116,-3.1161,-3.1161,-3.1305,-3.1308,0,0,0,0,0,0,-3.1363,-3.1354,-3.1346,-3.1343,-3.1321,-3.1286,-3.1279,-3.1281,-3.1238,-3.1228,-3.1233,-3.1226,-3.1189,-3.1187,-3.1186,-3.1262,-3.116,-3.1161,-3.1162,-3.1302,-3.1305,-3.1309,0,0,0,0,0,0,-3.1364,-3.1364,-3.1348,-3.1346,-3.1343,-3.1289,-3.1293,-3.1282,-3.128,-3.1231,-3.122,-3.1242,-3.1187,-3.1184,-3.1215,-3.1258,-3.1162,-3.1162,-3.1298,-3.1303,-3.1307,-3.1414,0,0,0,0,0,0,-3.1365,-3.1364,-3.1388,-3.1348,-3.1343,-3.1378,-3.1296,-3.1283,-3.1282,-3.1272,-3.1236,-3.1227,-3.1184,-3.1215,-3.1216,-3.1258,-3.1163,-3.1293,-3.13,-3.1306,-3.1406,-3.1422,-3.1436,0,0,0,0,0,-3.1365,-3.142,-3.139,-3.139,-3.1372,-3.1381,-3.1378,-3.1328,-3.1285,-3.131,-3.1279,-3.1228,-3.1254,-3.1219,-3.122,-3.1262,-3.129,-3.1298,-3.1305,-3.14,-3.1419,-3.1435,0,0,0,0,0,0,-3.1467,-3.1414,-3.138,-3.1423,-3.1407,-3.1363,-3.1392,-3.1349,-3.1345,-3.1336,-3.1274,-3.1267,-3.1306,-3.1287,-3.1249,-3.1326,-3.1264,-3.1272,-3.1336,-3.1354,-3.1368,-3.1371,-3.1164,0,0,0,0,0,-3.1494,-3.1505,-3.1459,-3.1501,-3.1495,-3.1446,-3.1448,-3.1411,-3.1392,-3.1384,-3.1355,-3.1339,-3.1344,-3.1348,-3.135,-3.1404,-3.1395,-3.1434,-3.1449,-3.1461,-3.1468,-3.1497,-3.1514,-3.1333,-3.1333,-3.1333,0,0,-3.1551,-3.1523,-3.1534,-3.1521,-3.1504,-3.1518,-3.144,-3.1458,-3.1467,-3.1387,-3.1414,-3.1393,-3.1371,-3.1415,-3.1433,-3.14,-3.1517,-3.1471,-3.1481,-3.1481,-3.1506,-3.1524,-3.1539,-3.1338,-3.1337,-3.1337,0,0,-3.166,-3.1641,-3.1675,-3.166,-3.1636,-3.1604,-3.1612,-3.1576,-3.1559,-3.1585,-3.1526,-3.1537,-3.1546,-3.1534,-3.1529,-3.1638,-3.1591,-3.1641,-3.1715,-3.1744,-3.1759,-3.1771,-3.181,-3.1825,-3.1648,-3.1648,-3.1649,0,-3.1733,-3.1751,-3.1698,-3.1719,-3.1716,-3.1645,-3.168,-3.1668,-3.1647,-3.1647,-3.1611,-3.1623,-3.1603,-3.1643,-3.167,-3.1669,-3.1677,-3.1643,-3.1761,-3.1773,-3.1783,-3.182,-3.1835,-3.1654,-3.1654,-3.1653,-3.1653,0,-3.1842,-3.1856,-3.1886,-3.1867,-3.1868,-3.1896,-3.1848,-3.1856,-3.182,-3.1791,-3.1821,-3.1795,-3.1791,-3.1799,-3.1763,-3.1835,-3.1816,-3.1772,-3.1708,-3.1807,-3.1841,-3.1854,-3.1663,-3.1661,-3.1659,-3.1658,0,0,-3.2011,-3.1965,-3.1977,-3.1968,-3.1939,-3.1948,-3.1975,-3.1971,-3.1979,-3.1967,-3.1988,-3.1999,-3.1959,-3.1954,-3.1917,-3.1943,-3.2032,-3.1895,-3.1894,-3.1921,-3.211,-3.2142,-3.2159,-3.2002,-3.2004,-3.2006,-3.2111,0,-3.2113,-3.2153,-3.2108,-3.2159,-3.2171,-3.2106,-3.2129,-3.2114,-3.209,-3.2097,-3.207,-3.2079,-3.2025,-3.2022,-3.2045,-3.2016,-3.2068,-3.2008,-3.2021,-3.2022,-3.2026,-3.2176,-3.221,-3.231,-3.2124,-3.2126,-3.2128,0,-3.2236,-3.2231,-3.2283,-3.2253,-3.2256,-3.2277,-3.2272,-3.228,-3.2263,-3.2243,-3.2239,-3.2196,-3.222,-3.2161,-3.2195,-3.2155,-3.2158,-3.2145,-3.2148,-3.2146,-3.2079,-3.2177,-3.234,-3.2355,-3.2148,-3.2146,-3.2145,0,-3.2353,-3.236,-3.2392,-3.2387,-3.2352,-3.2369,-3.2356,-3.2335,-3.2337,-3.2333,-3.2333,-3.2332,-3.2332,-3.2332,-3.2291,-3.2251,-3.233,-3.2267,-3.2315,-3.2316,-3.2332,-3.2331,-3.2497,-3.2337,-3.2337,-3.2336,-3.2336,0,-3.2471,-3.2505,-3.2445,-3.2465,-3.2502,-3.2451,-3.249,-3.247,-3.2453,-3.2469,-3.2413,-3.2429,-3.2374,-3.2385,-3.2353,-3.2386,-3.2386,-3.2371,-3.2362,-3.2375,-3.2377,-3.2375,-3.2367,-3.234,-3.2339,-3.2339,-3.2338,0,-3.2607,-3.2568,-3.2599,-3.2564,-3.2557,-3.2586,-3.2557,-3.2574,-3.2547,-3.2568,-3.257,-3.2528,-3.2538,-3.2497,-3.25,-3.2478,-3.2528,-3.2508,-3.2534,-3.2527,-3.2577,-3.2573,-3.2746,-3.2766,-3.2595,-3.2596,-3.2598,0,-3.2683,-3.2708,-3.2677,-3.2684,-3.2674,-3.2685,-3.2687,-3.2639,-3.2643,-3.2627,-3.2647,-3.2653,-3.2655,-3.2674,-3.2644,-3.2647,-3.2625,-3.2686,-3.2625,-3.2639,-3.2626,-3.2624,-3.2627,-3.2698,-3.27,-3.2702,-3.2703,0,-3.2824,-3.2804,-3.2808,-3.2808,-3.2812,-3.2808,-3.2801,-3.281,-3.2759,-3.2767,-3.2777,-3.2778,-3.2783,-3.2789,-3.2786,-3.2773,-3.273,-3.2724,-3.2735,-3.2748,-3.2761,-3.2754,-3.2567,-3.2719,-3.2717,-3.2716,-3.2715,-3.2715,-3.2932,-3.2952,-3.2933,-3.2941,-3.2931,-3.2927,-3.2942,-3.2918,-3.2926,-3.2925,-3.2897,-3.2913,-3.2898,-3.2889,-3.2881,-3.2893,-3.2865,-3.2881,-3.2885,-3.2889,-3.2898,-3.2761,-3.2893,-3.2892,-3.2892,-3.2891,-3.2891,0,-3.3069,-3.3055,-3.3062,-3.3055,-3.3062,-3.3023,-3.3014,-3.3022,-3.3037,-3.3026,-3.303,-3.3043,-3.305,-3.3022,-3.3025,-3.3041,-3.3021,-3.3043,-3.3041,-3.3038,-3.2923,-3.2913,-3.3059,-3.3059,-3.3059,-3.3059,-3.3059,-3.3058,-3.3141,-3.3173,-3.3152,-3.3179,-3.3165,-3.318,-3.3179,-3.3175,-3.3166,-3.3183,-3.3189,-3.3171,-3.3154,-3.3156,-3.3161,-3.3153,-3.3157,-3.3185,-3.317,-3.3063,-3.3046,-3.3031,-3.3021,-3.3187,-3.3187,-3.3284,-3.3285,-3.3286]},{"header":{"parameterUnit":"m.s-1","parameterCategory":1,"la1":30.2991,"la2":30.254,"lo1":-89.0895,"lo2":-89.0444,"dy":0.0017,"dx":0.0017,"nx":28,"ny":28,"refTime":"2024-08-31T09:00:00:Z","depth":0,"parameterNumber":3,"parameterNumberName":"V-component_of_WINDS"},"data":[0,0,0,0,0,0,0,0,0,0,0,0,0,0,0,0,0,0,0,0,0,0,0,0,0,0,0,0,0,0,0,0,0,0,0,0,0,0,0,0,0,0,0,0,0,0,0,0,0,0,0,0,0,0,0,0,0,0,2.4355,2.4355,0,2.4416,2.4417,2.4418,2.4501,2.4503,2.4504,2.4506,2.4564,2.4564,2.4565,0,0,0,0,0,0,0,0,0,0,0,0,0,2.4307,2.4307,2.4355,2.4355,2.4356,2.4416,2.4417,2.4418,2.4501,2.4503,2.4505,2.4506,2.4564,2.4564,2.4565,0,0,0,0,0,0,0,0,0,0,0,0,0,2.4344,2.4308,2.4354,2.4405,2.441,2.4416,2.4417,2.4418,2.4501,2.4503,2.4505,2.4507,2.4564,2.4564,2.4565,2.4524,0,0,2.4566,2.4566,0,0,0,0,0,0,0,0,2.4342,2.4345,2.4397,2.4402,2.4407,2.4453,2.4422,2.4453,2.45,2.4466,2.4506,2.4508,2.4525,2.4529,2.4536,2.4527,2.4529,2.4566,2.4566,2.4566,2.4566,0,0,0,0,0,0,0,2.4339,2.4343,2.4379,2.4398,2.4404,2.4424,2.4432,2.4428,2.4483,2.4469,2.4476,2.4482,2.4529,2.4535,2.4538,2.453,2.4566,2.4566,2.4566,2.4566,2.4493,2.4491,0,0,0,0,0,0,2.4329,2.4341,2.4377,2.4381,2.4379,2.4423,2.4432,2.4436,2.4483,2.4493,2.448,2.4486,2.4533,2.4537,2.454,2.4497,2.4566,2.4566,2.4567,2.4495,2.4492,2.449,0,0,0,0,0,0,2.4328,2.4332,2.4374,2.4362,2.4369,2.4422,2.4426,2.4436,2.4443,2.4491,2.4501,2.4477,2.4535,2.454,2.4528,2.45,2.4567,2.4567,2.4497,2.4494,2.4491,2.4408,0,0,0,0,0,0,2.4326,2.4331,2.4316,2.4362,2.437,2.4362,2.4425,2.4436,2.4444,2.4452,2.4491,2.4499,2.4537,2.4527,2.4528,2.4501,2.4567,2.45,2.4496,2.4492,2.4414,2.4403,2.4393,0,0,0,0,0,2.4324,2.4289,2.4315,2.4319,2.4353,2.436,2.4365,2.441,2.4441,2.4427,2.4459,2.4498,2.4503,2.4525,2.4527,2.45,2.4502,2.4497,2.4492,2.4419,2.4405,2.4393,0,0,0,0,0,0,2.4237,2.4296,2.4325,2.4304,2.4327,2.4374,2.4358,2.4394,2.4407,2.4414,2.4468,2.4476,2.4458,2.4478,2.4502,2.4464,2.4509,2.4504,2.4452,2.4439,2.4429,2.4424,2.4567,0,0,0,0,0,2.4216,2.4218,2.4269,2.4245,2.4255,2.4304,2.4309,2.4343,2.4368,2.4377,2.4407,2.4429,2.4436,2.4439,2.4447,2.4418,2.4427,2.44,2.439,2.4381,2.4376,2.4363,2.4351,2.4474,2.4474,2.4474,0,0,2.4171,2.4204,2.4201,2.4229,2.425,2.425,2.4312,2.4309,2.4309,2.4376,2.4368,2.4391,2.4419,2.4398,2.4391,2.4414,2.4345,2.4375,2.4367,2.4367,2.4357,2.4345,2.4334,2.4471,2.4471,2.4472,0,0,2.409,2.4115,2.4099,2.412,2.4152,2.4185,2.4181,2.4224,2.4242,2.4235,2.4286,2.4287,2.4297,2.4315,2.4325,2.4253,2.4291,2.4255,2.42,2.4187,2.4177,2.4169,2.4143,2.4134,2.425,2.4249,2.4249,0,2.403,2.4034,2.4085,2.408,2.4091,2.4153,2.4137,2.4155,2.4187,2.4193,2.4219,2.4234,2.4257,2.4243,2.4225,2.4232,2.4229,2.425,2.4175,2.4167,2.416,2.4136,2.4126,2.4245,2.4245,2.4246,2.4246,0,2.3958,2.396,2.3943,2.3975,2.3984,2.3973,2.4023,2.4025,2.4058,2.4089,2.4081,2.4111,2.4128,2.4127,2.4158,2.4117,2.4131,2.4165,2.4211,2.4143,2.4121,2.4113,2.4238,2.424,2.4241,2.4243,0,0,2.3822,2.3886,2.3878,2.3895,2.3936,2.3938,2.393,2.3948,2.3949,2.397,2.3965,2.3973,2.4006,2.4018,2.4052,2.404,2.3982,2.4076,2.4078,2.4058,2.3939,2.3913,2.3901,2.4007,2.4006,2.4004,2.3937,0,2.3749,2.3741,2.3788,2.3767,2.3769,2.383,2.3823,2.3847,2.3876,2.3881,2.3912,2.3918,2.396,2.3968,2.3959,2.3991,2.3959,2.3996,2.4002,2.4002,2.3993,2.389,2.3862,2.3797,2.3929,2.3927,2.3926,0,2.3662,2.3681,2.366,2.3705,2.3708,2.3701,2.3722,2.3727,2.3756,2.3777,2.3792,2.3832,2.3827,2.3871,2.3865,2.3889,2.3895,2.3911,2.3909,2.3911,2.3959,2.3889,2.3777,2.3767,2.3914,2.3915,2.3915,0,2.3566,2.3586,2.3577,2.3588,2.3639,2.3634,2.3654,2.3686,2.3694,2.3712,2.3718,2.3734,2.3743,2.3755,2.3798,2.3826,2.3787,2.3834,2.3804,2.3803,2.3792,2.3792,2.3679,2.3796,2.3796,2.3796,2.3796,0,2.3479,2.3464,2.3534,2.3528,2.3514,2.3568,2.3551,2.3578,2.3606,2.3606,2.3658,2.3657,2.3715,2.372,2.3753,2.3744,2.3747,2.3764,2.3773,2.3759,2.3757,2.3763,2.3768,2.3794,2.3794,2.3795,2.3795,0,2.3368,2.3415,2.3409,2.3459,2.3471,2.3458,2.35,2.3497,2.3529,2.3529,2.3532,2.3582,2.3591,2.3636,2.3654,2.3677,2.3655,2.3673,2.3646,2.3652,2.3619,2.3621,2.3505,2.3493,2.3617,2.3616,2.3615,0,2.331,2.33,2.335,2.3355,2.3374,2.338,2.339,2.3443,2.3451,2.3484,2.3476,2.349,2.3503,2.3514,2.3552,2.3567,2.3586,2.3544,2.3588,2.3575,2.3585,2.3585,2.3585,2.3534,2.3532,2.3531,2.353,0,2.3201,2.3225,2.3238,2.3258,2.3269,2.3287,2.3309,2.3309,2.3368,2.3374,2.3385,2.3395,2.3416,2.3428,2.345,2.347,2.351,2.3516,2.351,2.3496,2.348,2.3489,2.362,2.3518,2.352,2.352,2.3521,2.3522,2.3115,2.311,2.3145,2.3157,2.318,2.3199,2.3199,2.3232,2.3242,2.3264,2.3295,2.3302,2.3332,2.3365,2.3383,2.3388,2.3411,2.3401,2.3399,2.3396,2.3389,2.348,2.3392,2.3393,2.3393,2.3393,2.3394,0,2.301,2.3036,2.3047,2.3076,2.3086,2.3125,2.3151,2.3156,2.3162,2.3188,2.3201,2.3213,2.3226,2.3266,2.3283,2.3279,2.3298,2.3282,2.3283,2.3287,2.3368,2.3372,2.3267,2.3267,2.3267,2.3267,2.3267,2.3267,2.2956,2.295,2.2978,2.2983,2.3009,2.3018,2.303,2.3048,2.3069,2.3081,2.3093,2.3119,2.3151,2.317,2.3184,2.3195,2.3199,2.3177,2.3194,2.3269,2.3281,2.3292,2.3296,2.3177,2.3177,2.3112,2.3112,2.3111]}]]